Location: Guferjoch
(46.7462°N, 8.4506°E)
Time: 23:47:04
(UTC+00:00)

Cosmos 1140 Rocket - Pass Details

Date: 14 July 2020
Orbit: 744 x 768 km, 74.1° (Epoch: 14 August)

Event Time Altitude Azimuth Distance (km) Brightness Sun altitude
Exits shadow 00:52:12 28° 157° (SSE) 1,406 4.5 -19.3°
Maximum altitude 00:54:28 44° 104° (ESE) 1,048 4.2 -19.1°
Drops below altitude 10° 00:59:25 10° 34° (NNE) 2,311 7.2 -18.8°
Sets 01:01:53 0° 28° (NNE) 3,244 8.4 -18.7°
